Indian Springs, NV

5:46 PM PST on February 23, 2017 (GMT -0800)
Indian Springs Air Force Auxiliary

Weather History for KINS - March, 2013

Change the Weather History Date:

Friday, March 29, 2013

  Actual Average (KDRA) Record (KDRA)
Temperature  
Mean Temperature 62 °F -  
Max Temperature 77 °F 66 °F 85 °F (2015)
Min Temperature 48 °F 41 °F 26 °F (1985)
Degree Days  
Heating Degree Days 2    
Growing Degree Days 12 (Base 50)    
Moisture  
Dew Point 28 °F    
Average Humidity 29    
Maximum Humidity 47    
Minimum Humidity 17    
Precipitation  
Precipitation 0.00 in - - ()
Sea Level Pressure  
Sea Level Pressure 30.09 in    
Wind  
Wind Speed 3 mph (NNE)    
Max Wind Speed 9 mph    
Max Gust Speed -    
Visibility 10 miles    
Events      
Averages and records for this station are not official NWS values.
T = Trace of Precipitation, MM = Missing Value Source: NWS Daily Summary

Daily Weather History Graph

Daily Weather History Graph

Search for Another Location

Airport or City:

Trip Planner

Search our weather history database for the weather conditions in past years. The results will help you decide how hot, cold, wet, or windy it might be!

Date:

Astronomy

Mar. 29, 2013 Rise Set
Actual Time 6:32 AM PDT 7:02 PM PDT
Civil Twilight 6:06 AM PDT 7:28 PM PDT
Nautical Twilight 5:36 AM PDT 7:59 PM PDT
Astronomical Twilight 5:05 AM PDT 8:30 PM PDT
Moon 10:01 PM PDT (3/29) 7:49 AM PDT (3/29)
Length of Visible Light 13h 21m
Length of Day
12h 30m
Waning Gibbous, 93% of the Moon is Illuminated
Mar 29
Waning Gibbous
Apr 2
Last Quarter
Apr 10
New
Apr 18
First Quarter
Apr 25
Full

Hourly Weather History & Observations

Time (PDT) Temp. Dew Point Humidity Pressure Visibility Wind Dir Wind Speed Gust Speed Precip Events Conditions
12:58 AM 56.7 °F 28.2 °F 34% 30.06 in 10.0 mi Variable 1.2 mph - N/A   Clear
1:58 AM 55.4 °F 26.6 °F 33% 30.06 in 10.0 mi WSW 3.5 mph - N/A   Clear
2:58 AM 53.8 °F 28.4 °F 38% 30.06 in 10.0 mi East 2.3 mph - N/A   Clear
3:58 AM 51.4 °F 28.2 °F 41% 30.06 in 10.0 mi Calm Calm - N/A   Partly Cloudy
4:58 AM 49.3 °F 26.8 °F 42% 30.08 in 10.0 mi SW 4.6 mph - N/A   Partly Cloudy
5:58 AM 48.2 °F 28.9 °F 47% 30.09 in 10.0 mi Variable 1.2 mph - N/A   Mostly Cloudy
6:58 AM 48.4 °F 27.5 °F 44% 30.11 in 10.0 mi WSW 5.8 mph - N/A   Partly Cloudy
7:58 AM 51.8 °F 30.2 °F 44% 30.12 in 10.0 mi ENE 1.2 mph - N/A   Clear
8:58 AM 58.6 °F 29.1 °F 33% 30.14 in 10.0 mi Calm Calm - N/A   Clear
9:58 AM 63.1 °F 29.7 °F 28% 30.14 in 10.0 mi Calm Calm - N/A   Clear
10:58 AM 68.4 °F 29.1 °F 23% 30.15 in 10.0 mi ENE 2.3 mph - N/A   Clear
11:58 AM 71.1 °F 28.9 °F 21% 30.14 in 10.0 mi Variable 2.3 mph - N/A   Clear
12:55 PM 73.4 °F 28.4 °F 19% 30.12 in 10.0 mi Variable 2.3 mph - N/A   Scattered Clouds
1:55 PM 75.2 °F 28.4 °F 18% 30.10 in 10.0 mi East 9.2 mph - N/A   Clear
3:55 PM 77.0 °F 28.4 °F 17% 30.05 in 10.0 mi North 2.3 mph - N/A   Clear
4:58 PM 76.5 °F 29.1 °F 18% 30.04 in 10.0 mi North 2.3 mph - N/A   Clear
5:58 PM 76.1 °F 28.8 °F 18% 30.04 in 10.0 mi Variable 4.6 mph - N/A   Clear
6:58 PM 73.9 °F 29.7 °F 20% 30.04 in 10.0 mi NNE 2.3 mph - N/A   Partly Cloudy
7:58 PM 70.0 °F 30.9 °F 24% 30.05 in 10.0 mi SE 5.8 mph - N/A   Partly Cloudy
8:58 PM 65.8 °F 28.9 °F 25% 30.07 in 10.0 mi NW 3.5 mph - N/A   Clear
9:58 PM 65.5 °F 25.2 °F 22% 30.09 in 10.0 mi NNE 2.3 mph - N/A   Clear
10:58 PM 61.7 °F 25.9 °F 26% 30.09 in 10.0 mi WSW 6.9 mph - N/A   Clear
11:58 PM 59.4 °F 25.9 °F 28% 30.09 in 10.0 mi Calm Calm - N/A   Clear